Time,TemperatureF,DewpointF,PressureIn,WindDirection,WindDirectionDegrees,WindSpeedMPH,WindSpeedGustMPH,Humidity,HourlyPrecipIn,Conditions,Clouds,dailyrainin,SoftwareType,DateUTC
2013-08-25 00:02:00,73.1,71.6,30.09,NNW,338,0.0,0.0,95,0.00,,---,0.00,VWS V14.01,2013-08-25 05:02:00,
2013-08-25 00:07:00,73.1,71.6,30.09,NNW,338,0.0,0.0,95,0.00,,---,0.00,VWS V14.01,2013-08-25 05:07:00,
2013-08-25 00:12:00,73.1,71.6,30.09,NNW,338,0.0,0.0,95,0.00,,---,0.00,VWS V14.01,2013-08-25 05:12:00,
2013-08-25 00:18:00,73.0,71.4,30.09,NNW,338,0.0,0.0,95,0.00,,---,0.00,VWS V14.01,2013-08-25 05:18:00,
2013-08-25 00:23:00,73.0,71.4,30.09,NNW,338,0.0,0.0,95,0.00,,---,0.00,VWS V14.01,2013-08-25 05:23:00,
2013-08-25 00:28:00,73.0,71.4,30.09,NNW,338,0.0,0.0,95,0.00,,---,0.00,VWS V14.01,2013-08-25 05:28:00,
2013-08-25 00:33:00,73.0,71.4,30.09,NNW,338,0.0,0.0,95,0.00,,---,0.00,VWS V14.01,2013-08-25 05:33:00,
2013-08-25 00:38:00,72.8,71.3,30.09,NNW,338,0.0,0.0,95,0.00,,---,0.00,VWS V14.01,2013-08-25 05:38:00,
2013-08-25 00:42:00,72.8,71.3,30.09,NNW,338,0.0,0.0,95,0.00,,---,0.00,VWS V14.01,2013-08-25 05:42:00,
2013-08-25 00:48:00,72.6,71.1,30.09,NNW,338,0.0,0.0,95,0.00,,---,0.00,VWS V14.01,2013-08-25 05:48:00,
2013-08-25 00:53:00,72.6,71.1,30.09,NNW,338,0.0,0.0,95,0.00,,---,0.00,VWS V14.01,2013-08-25 05:53:00,
2013-08-25 00:58:00,72.6,71.1,30.09,NNW,338,0.0,0.0,95,0.00,,---,0.00,VWS V14.01,2013-08-25 05:58:00,
2013-08-25 01:03:00,72.6,71.4,30.09,NNW,338,0.0,0.0,96,0.00,,---,0.00,VWS V14.01,2013-08-25 06:03:00,
2013-08-25 01:08:00,72.6,71.4,30.09,NNW,338,0.0,0.0,96,0.00,,---,0.00,VWS V14.01,2013-08-25 06:08:00,
2013-08-25 01:13:00,72.6,71.4,30.09,NNW,338,0.0,0.0,96,0.00,,---,0.00,VWS V14.01,2013-08-25 06:13:00,
2013-08-25 01:18:00,72.6,71.4,30.09,NNW,338,0.0,0.0,96,0.00,,---,0.00,VWS V14.01,2013-08-25 06:18:00,
2013-08-25 01:23:00,72.6,71.4,30.09,NNW,338,0.0,0.0,96,0.00,,---,0.00,VWS V14.01,2013-08-25 06:23:00,
2013-08-25 01:28:00,72.6,71.4,30.09,NNW,338,0.0,0.0,96,0.00,,---,0.00,VWS V14.01,2013-08-25 06:28:00,
2013-08-25 01:33:00,72.6,71.4,30.09,NNW,338,0.0,0.0,96,0.00,,---,0.00,VWS V14.01,2013-08-25 06:33:00,
2013-08-25 01:37:00,72.6,71.4,30.09,NNW,338,0.0,0.0,96,0.00,,---,0.00,VWS V14.01,2013-08-25 06:37:00,
2013-08-25 01:42:00,72.6,71.4,30.09,NNW,338,0.0,0.0,96,0.00,,---,0.00,VWS V14.01,2013-08-25 06:42:00,
2013-08-25 01:47:00,72.6,71.4,30.09,NNW,338,0.0,0.0,96,0.00,,---,0.00,VWS V14.01,2013-08-25 06:47:00,
2013-08-25 01:52:00,72.6,71.4,30.09,NNW,338,0.0,0.0,96,0.00,,---,0.00,VWS V14.01,2013-08-25 06:52:00,
2013-08-25 01:57:00,72.6,71.4,30.09,NNW,338,0.0,0.0,96,0.00,,---,0.00,VWS V14.01,2013-08-25 06:57:00,
2013-08-25 02:02:00,72.6,71.4,30.09,NNW,338,0.0,0.0,96,0.00,,---,0.00,VWS V14.01,2013-08-25 07:02:00,
2013-08-25 02:07:00,72.6,71.4,30.09,NNW,338,0.0,0.0,96,0.00,,---,0.00,VWS V14.01,2013-08-25 07:07:00,
2013-08-25 02:12:00,72.6,71.4,30.09,NNW,338,0.0,0.0,96,0.00,,---,0.00,VWS V14.01,2013-08-25 07:12:00,
2013-08-25 02:17:00,72.6,71.4,30.09,NNW,338,0.0,0.0,96,0.00,,---,0.00,VWS V14.01,2013-08-25 07:17:00,
2013-08-25 02:22:00,72.4,71.2,30.09,NNW,338,0.0,0.0,96,0.00,,---,0.00,VWS V14.01,2013-08-25 07:22:00,
2013-08-25 02:27:00,72.4,71.2,30.09,NNW,338,0.0,0.0,96,0.00,,---,0.00,VWS V14.01,2013-08-25 07:27:00,
2013-08-25 02:32:00,72.4,71.2,30.09,NNW,338,0.0,0.0,96,0.00,,---,0.00,VWS V14.01,2013-08-25 07:32:00,
2013-08-25 02:37:00,72.4,71.2,30.09,NNW,338,0.0,0.0,96,0.00,,---,0.00,VWS V14.01,2013-08-25 07:37:00,
2013-08-25 02:42:00,72.2,71.0,30.09,NNW,338,0.0,0.0,96,0.00,,---,0.00,VWS V14.01,2013-08-25 07:42:00,
2013-08-25 02:47:00,72.2,71.0,30.09,NNW,338,0.0,0.0,96,0.00,,---,0.00,VWS V14.01,2013-08-25 07:47:00,
2013-08-25 02:52:00,72.2,71.0,30.09,NNW,338,0.0,0.0,96,0.00,,---,0.00,VWS V14.01,2013-08-25 07:52:00,
2013-08-25 02:58:00,72.2,71.0,30.09,NNW,338,0.0,0.0,96,0.00,,---,0.00,VWS V14.01,2013-08-25 07:58:00,
2013-08-25 03:03:00,72.1,70.9,30.09,NNW,338,0.0,0.0,96,0.00,,---,0.00,VWS V14.01,2013-08-25 08:03:00,
2013-08-25 03:08:00,72.1,70.9,30.09,NNW,338,0.0,0.0,96,0.00,,---,0.00,VWS V14.01,2013-08-25 08:08:00,
2013-08-25 03:13:00,72.1,71.2,30.09,NNW,338,0.0,0.0,97,0.00,,---,0.00,VWS V14.01,2013-08-25 08:13:00,
2013-08-25 03:18:00,72.1,70.9,30.09,NNW,338,0.0,0.0,96,0.00,,---,0.00,VWS V14.01,2013-08-25 08:18:00,
2013-08-25 03:23:00,72.1,70.9,30.09,NNW,338,0.0,0.0,96,0.00,,---,0.00,VWS V14.01,2013-08-25 08:23:00,
2013-08-25 03:28:00,72.1,71.2,30.09,NNW,338,0.0,0.0,97,0.00,,---,0.00,VWS V14.01,2013-08-25 08:28:00,
2013-08-25 03:33:00,72.1,71.2,30.09,NNW,338,0.0,0.0,97,0.00,,---,0.00,VWS V14.01,2013-08-25 08:33:00,
2013-08-25 03:38:00,72.1,71.2,30.09,NNW,338,0.0,0.0,97,0.00,,---,0.00,VWS V14.01,2013-08-25 08:38:00,
2013-08-25 03:43:00,71.9,70.7,30.09,NNW,338,0.0,0.0,96,0.00,,---,0.00,VWS V14.01,2013-08-25 08:43:00,
2013-08-25 03:48:00,71.9,70.7,30.09,NNW,338,0.0,0.0,96,0.00,,---,0.00,VWS V14.01,2013-08-25 08:48:00,
2013-08-25 03:53:00,71.9,71.0,30.09,NNW,338,0.0,0.0,97,0.00,,---,0.00,VWS V14.01,2013-08-25 08:53:00,
2013-08-25 03:58:00,71.9,71.0,30.09,NNW,338,0.0,0.0,97,0.00,,---,0.00,VWS V14.01,2013-08-25 08:58:00,
2013-08-25 04:03:00,71.7,70.5,30.09,NNW,338,0.0,0.0,96,0.00,,---,0.00,VWS V14.01,2013-08-25 09:03:00,
2013-08-25 04:08:00,71.7,70.5,30.09,NNW,338,0.0,0.0,96,0.00,,---,0.00,VWS V14.01,2013-08-25 09:08:00,
2013-08-25 04:13:00,71.7,70.5,30.09,NNW,338,0.0,0.0,96,0.00,,---,0.00,VWS V14.01,2013-08-25 09:13:00,
2013-08-25 04:18:00,71.5,70.3,30.09,NNW,338,0.0,0.0,96,0.00,,---,0.00,VWS V14.01,2013-08-25 09:18:00,
2013-08-25 04:23:00,71.5,70.3,30.09,NNW,338,0.0,0.0,96,0.00,,---,0.00,VWS V14.01,2013-08-25 09:23:00,
2013-08-25 04:28:00,71.5,70.3,30.09,NNW,338,0.0,0.0,96,0.00,,---,0.00,VWS V14.01,2013-08-25 09:28:00,
2013-08-25 04:33:00,71.5,70.3,30.09,NNW,338,0.0,0.0,96,0.00,,---,0.00,VWS V14.01,2013-08-25 09:33:00,
2013-08-25 04:38:00,71.3,70.1,30.09,NNW,338,0.0,0.0,96,0.00,,---,0.00,VWS V14.01,2013-08-25 09:38:00,
2013-08-25 04:43:00,71.3,70.1,30.09,NNW,338,0.0,0.0,96,0.00,,---,0.00,VWS V14.01,2013-08-25 09:43:00,
2013-08-25 04:48:00,71.3,70.1,30.09,NNW,338,0.0,0.0,96,0.00,,---,0.00,VWS V14.01,2013-08-25 09:48:00,
2013-08-25 04:53:00,71.3,70.1,30.09,NNW,338,0.0,0.0,96,0.00,,---,0.00,VWS V14.01,2013-08-25 09:53:00,
2013-08-25 04:58:00,71.3,70.1,30.09,NNW,338,0.0,0.0,96,0.00,,---,0.00,VWS V14.01,2013-08-25 09:58:00,
2013-08-25 05:03:00,71.3,70.1,30.09,NNW,338,0.0,0.0,96,0.00,,---,0.00,VWS V14.01,2013-08-25 10:03:00,
2013-08-25 05:08:00,71.2,70.0,30.09,NNW,338,0.0,0.0,96,0.00,,---,0.00,VWS V14.01,2013-08-25 10:08:00,
2013-08-25 05:13:00,71.2,70.0,30.09,NNW,338,0.0,0.0,96,0.00,,---,0.00,VWS V14.01,2013-08-25 10:13:00,
2013-08-25 05:18:00,71.0,69.8,30.09,NNW,338,0.0,0.0,96,0.00,,---,0.00,VWS V14.01,2013-08-25 10:18:00,
2013-08-25 05:23:00,71.0,69.8,30.09,NNW,338,0.0,0.0,96,0.00,,---,0.00,VWS V14.01,2013-08-25 10:23:00,
2013-08-25 05:28:00,71.0,69.8,30.09,NNW,338,0.0,0.0,96,0.00,,---,0.00,VWS V14.01,2013-08-25 10:28:00,
2013-08-25 05:33:00,71.0,69.8,30.09,NNW,338,0.0,0.0,96,0.00,,---,0.00,VWS V14.01,2013-08-25 10:33:00,
2013-08-25 05:38:00,70.8,69.6,30.09,NNW,338,0.0,0.0,96,0.00,,---,0.00,VWS V14.01,2013-08-25 10:38:00,
2013-08-25 05:43:00,70.8,69.6,30.09,NNW,338,0.0,0.0,96,0.00,,---,0.00,VWS V14.01,2013-08-25 10:43:00,
2013-08-25 05:48:00,70.8,69.6,30.09,NNW,338,0.0,0.0,96,0.00,,---,0.00,VWS V14.01,2013-08-25 10:48:00,
2013-08-25 05:53:00,70.8,69.6,30.09,NNW,338,0.0,0.0,96,0.00,,---,0.00,VWS V14.01,2013-08-25 10:53:00,
2013-08-25 05:58:00,70.8,69.6,30.09,NNW,338,0.0,0.0,96,0.00,,---,0.00,VWS V14.01,2013-08-25 10:58:00,
2013-08-25 06:03:00,70.6,69.7,30.09,NNW,338,0.0,0.0,97,0.00,,---,0.00,VWS V14.01,2013-08-25 11:03:00,
2013-08-25 06:08:00,70.8,69.6,30.09,NNW,338,0.0,0.0,96,0.00,,---,0.00,VWS V14.01,2013-08-25 11:08:00,
2013-08-25 06:13:00,70.8,69.9,30.09,NNW,338,0.0,0.0,97,0.00,,---,0.00,VWS V14.01,2013-08-25 11:13:00,
2013-08-25 06:18:00,70.8,69.9,30.09,NNW,338,0.0,0.0,97,0.00,,---,0.00,VWS V14.01,2013-08-25 11:18:00,
2013-08-25 06:23:00,70.8,69.9,30.12,NNW,338,0.0,0.0,97,0.00,,---,0.00,VWS V14.01,2013-08-25 11:23:00,
2013-08-25 06:28:00,70.8,69.9,30.12,NNW,338,0.0,0.0,97,0.00,,---,0.00,VWS V14.01,2013-08-25 11:28:00,
2013-08-25 06:33:00,71.0,70.1,30.12,NNW,338,0.0,0.0,97,0.00,,---,0.00,VWS V14.01,2013-08-25 11:33:00,
2013-08-25 06:38:00,71.0,70.1,30.12,NNW,338,0.0,0.0,97,0.00,,---,0.00,VWS V14.01,2013-08-25 11:38:00,
2013-08-25 06:43:00,71.0,70.1,30.12,NNW,338,0.0,0.0,97,0.00,,---,0.00,VWS V14.01,2013-08-25 11:43:00,
2013-08-25 06:48:00,71.0,70.1,30.12,NNW,338,0.0,0.0,97,0.00,,---,0.00,VWS V14.01,2013-08-25 11:48:00,
2013-08-25 06:53:00,71.2,70.3,30.12,NNW,338,0.0,0.0,97,0.00,,---,0.00,VWS V14.01,2013-08-25 11:53:00,
2013-08-25 06:58:00,71.2,70.3,30.12,NNW,338,0.0,0.0,97,0.00,,---,0.00,VWS V14.01,2013-08-25 11:58:00,
2013-08-25 07:03:00,71.3,70.4,30.12,NNW,338,0.0,0.0,97,0.00,,---,0.00,VWS V14.01,2013-08-25 12:03:00,
2013-08-25 07:08:00,71.3,70.4,30.12,NNW,338,0.0,0.0,97,0.00,,---,0.00,VWS V14.01,2013-08-25 12:08:00,
2013-08-25 07:13:00,71.3,70.4,30.12,NNW,338,0.0,0.0,97,0.00,,---,0.00,VWS V14.01,2013-08-25 12:13:00,
2013-08-25 07:18:00,71.3,70.4,30.12,NNW,338,0.0,0.0,97,0.00,,---,0.00,VWS V14.01,2013-08-25 12:18:00,
2013-08-25 07:23:00,71.3,70.4,30.12,NNW,338,0.0,0.0,97,0.00,,---,0.00,VWS V14.01,2013-08-25 12:23:00,
2013-08-25 07:28:00,71.3,70.4,30.12,NNW,338,0.0,0.0,97,0.00,,---,0.00,VWS V14.01,2013-08-25 12:28:00,
2013-08-25 07:33:00,71.3,70.4,30.12,NNW,338,0.0,0.0,97,0.00,,---,0.00,VWS V14.01,2013-08-25 12:33:00,
2013-08-25 07:38:00,71.3,70.4,30.12,NNW,338,0.0,0.0,97,0.00,,---,0.00,VWS V14.01,2013-08-25 12:38:00,
2013-08-25 07:44:00,71.3,70.4,30.12,NNW,338,0.0,0.0,97,0.00,,---,0.00,VWS V14.01,2013-08-25 12:44:00,
2013-08-25 07:49:00,71.3,70.4,30.12,NNW,338,0.0,0.0,97,0.00,,---,0.00,VWS V14.01,2013-08-25 12:49:00,
2013-08-25 07:54:00,71.3,70.4,30.15,NNW,338,0.0,0.0,97,0.00,,---,0.00,VWS V14.01,2013-08-25 12:54:00,
2013-08-25 07:59:00,72.6,72.0,30.15,NNW,338,0.0,0.0,98,0.00,,---,0.00,VWS V14.01,2013-08-25 12:59:00,
2013-08-25 08:04:00,73.0,72.4,30.15,NNW,338,0.0,0.0,98,0.00,,---,0.00,VWS V14.01,2013-08-25 13:04:00,
2013-08-25 08:09:00,73.1,72.6,30.15,ENE,68,0.0,0.0,98,0.00,,---,0.00,VWS V14.01,2013-08-25 13:09:00,
2013-08-25 08:14:00,73.5,72.9,30.15,ENE,68,0.0,0.0,98,0.00,,---,0.00,VWS V14.01,2013-08-25 13:14:00,
2013-08-25 08:19:00,73.7,73.1,30.15,ENE,68,0.0,0.0,98,0.00,,---,0.00,VWS V14.01,2013-08-25 13:19:00,
2013-08-25 08:24:00,73.9,73.3,30.15,ENE,68,0.0,0.0,98,0.00,,---,0.00,VWS V14.01,2013-08-25 13:24:00,
2013-08-25 08:29:00,74.2,73.6,30.15,ESE,112,0.0,0.0,98,0.00,,---,0.00,VWS V14.01,2013-08-25 13:29:00,
2013-08-25 08:34:00,74.4,73.8,30.15,ESE,112,0.0,0.0,98,0.00,,---,0.00,VWS V14.01,2013-08-25 13:34:00,
2013-08-25 08:39:00,74.8,74.2,30.15,ENE,68,0.0,0.0,98,0.00,,---,0.00,VWS V14.01,2013-08-25 13:39:00,
2013-08-25 08:44:00,74.9,74.3,30.15,ENE,68,0.0,0.0,98,0.00,,---,0.00,VWS V14.01,2013-08-25 13:44:00,
2013-08-25 08:49:00,75.1,74.2,30.15,ESE,112,0.0,0.0,97,0.00,,---,0.00,VWS V14.01,2013-08-25 13:49:00,
2013-08-25 08:54:00,75.1,74.2,30.18,ESE,112,0.0,0.0,97,0.00,,---,0.00,VWS V14.01,2013-08-25 13:54:00,
2013-08-25 08:59:00,75.3,74.4,30.18,ESE,112,0.0,0.0,97,0.00,,---,0.00,VWS V14.01,2013-08-25 13:59:00,
2013-08-25 09:04:00,75.5,74.6,30.18,ESE,112,0.0,0.0,97,0.00,,---,0.00,VWS V14.01,2013-08-25 14:04:00,
2013-08-25 09:09:00,75.7,74.8,30.18,ESE,112,0.0,0.0,97,0.00,,---,0.00,VWS V14.01,2013-08-25 14:09:00,
2013-08-25 09:14:00,75.8,74.9,30.18,NE,45,0.0,0.0,97,0.00,,---,0.00,VWS V14.01,2013-08-25 14:14:00,
2013-08-25 09:19:00,76.2,75.0,30.18,NE,45,0.0,0.0,96,0.00,,---,0.00,VWS V14.01,2013-08-25 14:19:00,
2013-08-25 09:24:00,76.7,75.5,30.18,SW,225,0.0,0.0,96,0.00,,---,0.00,VWS V14.01,2013-08-25 14:24:00,
2013-08-25 09:29:00,77.3,76.1,30.18,NE,45,0.0,0.0,96,0.00,,---,0.00,VWS V14.01,2013-08-25 14:29:00,
2013-08-25 09:34:00,77.6,76.4,30.18,ESE,112,1.6,1.6,96,0.00,,---,0.00,VWS V14.01,2013-08-25 14:34:00,
2013-08-25 09:39:00,78.0,76.1,30.18,SSE,158,2.5,2.5,94,0.00,,---,0.00,VWS V14.01,2013-08-25 14:39:00,
2013-08-25 09:44:00,78.0,75.8,30.18,NE,45,0.0,0.0,93,0.00,,---,0.00,VWS V14.01,2013-08-25 14:44:00,
2013-08-25 09:49:00,78.2,75.7,30.18,ENE,68,0.0,0.0,92,0.00,,---,0.00,VWS V14.01,2013-08-25 14:49:00,
2013-08-25 09:54:00,78.2,75.3,30.18,North,0,0.0,0.0,91,0.00,,---,0.00,VWS V14.01,2013-08-25 14:54:00,
2013-08-25 09:59:00,78.9,76.1,30.18,SE,135,2.5,2.5,91,0.00,,---,0.00,VWS V14.01,2013-08-25 14:59:00,
2013-08-25 10:04:00,78.9,75.4,30.18,SSW,202,2.5,2.5,89,0.00,,---,0.00,VWS V14.01,2013-08-25 15:04:00,
2013-08-25 10:09:00,79.1,75.2,30.18,NE,45,0.0,0.0,88,0.00,,---,0.00,VWS V14.01,2013-08-25 15:09:00,
2013-08-25 10:14:00,78.9,74.7,30.18,ENE,68,0.0,0.0,87,0.00,,---,0.00,VWS V14.01,2013-08-25 15:14:00,
2013-08-25 10:19:00,78.9,74.7,30.18,SSE,158,0.0,0.0,87,0.00,,---,0.00,VWS V14.01,2013-08-25 15:19:00,
2013-08-25 10:24:00,79.1,74.9,30.18,ESE,112,0.0,0.0,87,0.00,,---,0.00,VWS V14.01,2013-08-25 15:24:00,
2013-08-25 10:29:00,79.1,74.5,30.18,NE,45,0.0,0.0,86,0.00,,---,0.00,VWS V14.01,2013-08-25 15:29:00,
2013-08-25 10:34:00,79.1,74.2,30.18,ENE,68,2.2,2.2,85,0.00,,---,0.00,VWS V14.01,2013-08-25 15:34:00,
2013-08-25 10:39:00,78.9,74.0,30.18,ENE,68,0.0,0.0,85,0.00,,---,0.00,VWS V14.01,2013-08-25 15:39:00,
2013-08-25 10:44:00,78.9,73.7,30.18,NNE,22,0.0,0.0,84,0.00,,---,0.00,VWS V14.01,2013-08-25 15:44:00,
2013-08-25 10:49:00,78.9,72.9,30.18,ENE,68,0.0,0.0,82,0.00,,---,0.00,VWS V14.01,2013-08-25 15:49:00,
2013-08-25 10:54:00,78.7,72.8,30.18,SSE,158,0.0,0.0,82,0.00,,---,0.00,VWS V14.01,2013-08-25 15:54:00,
2013-08-25 10:59:00,78.9,73.3,30.18,NE,45,0.0,0.0,83,0.00,,---,0.00,VWS V14.01,2013-08-25 15:59:00,
2013-08-25 11:04:00,78.9,72.9,30.18,SSE,158,2.5,2.5,82,0.00,,---,0.00,VWS V14.01,2013-08-25 16:04:00,
2013-08-25 11:09:00,79.3,73.3,30.18,NE,45,0.0,2.5,82,0.00,,---,0.00,VWS V14.01,2013-08-25 16:09:00,
2013-08-25 11:14:00,79.4,72.7,30.18,NE,45,2.2,2.2,80,0.00,,---,0.00,VWS V14.01,2013-08-25 16:14:00,
2013-08-25 11:19:00,79.3,72.2,30.18,ESE,112,2.5,2.7,79,0.00,,---,0.00,VWS V14.01,2013-08-25 16:19:00,
2013-08-25 11:24:00,79.3,72.2,30.18,NE,45,0.0,0.0,79,0.00,,---,0.00,VWS V14.01,2013-08-25 16:24:00,
2013-08-25 11:29:00,79.3,72.6,30.18,SSE,158,0.0,0.0,80,0.00,,---,0.00,VWS V14.01,2013-08-25 16:29:00,
2013-08-25 11:34:00,79.3,72.6,30.18,ESE,112,1.1,1.1,80,0.00,,---,0.00,VWS V14.01,2013-08-25 16:34:00,
2013-08-25 11:39:00,79.3,72.6,30.18,NNE,22,0.0,0.0,80,0.00,,---,0.00,VWS V14.01,2013-08-25 16:39:00,
2013-08-25 11:44:00,79.3,71.8,30.18,ENE,68,0.0,0.0,78,0.00,,---,0.00,VWS V14.01,2013-08-25 16:44:00,
2013-08-25 11:49:00,79.4,72.0,30.18,NNE,22,0.0,1.1,78,0.00,,---,0.00,VWS V14.01,2013-08-25 16:49:00,
2013-08-25 11:54:00,79.6,72.2,30.18,NE,45,0.0,1.3,78,0.00,,---,0.00,VWS V14.01,2013-08-25 16:54:00,
2013-08-25 11:59:00,79.8,72.3,30.18,NE,45,0.0,0.0,78,0.00,,---,0.00,VWS V14.01,2013-08-25 16:59:00,
2013-08-25 12:04:00,80.0,72.5,30.18,ESE,112,0.0,0.9,78,0.00,,---,0.00,VWS V14.01,2013-08-25 17:04:00,
2013-08-25 12:09:00,80.2,73.1,30.18,SE,135,0.0,1.1,79,0.00,,---,0.00,VWS V14.01,2013-08-25 17:09:00,
2013-08-25 12:14:00,80.2,72.7,30.18,SSE,158,2.5,2.5,78,0.00,,---,0.00,VWS V14.01,2013-08-25 17:14:00,
2013-08-25 12:19:00,80.3,72.9,30.18,ESE,112,2.5,2.5,78,0.00,,---,0.00,VWS V14.01,2013-08-25 17:19:00,
2013-08-25 12:25:00,80.9,73.4,30.18,ESE,112,2.7,3.4,78,0.00,,---,0.00,VWS V14.01,2013-08-25 17:25:00,
2013-08-25 12:30:00,81.2,73.3,30.18,ESE,112,0.0,0.0,77,0.00,,---,0.00,VWS V14.01,2013-08-25 17:30:00,
2013-08-25 12:35:00,81.4,72.3,30.18,WNW,292,2.5,2.5,74,0.00,,---,0.00,VWS V14.01,2013-08-25 17:35:00,
2013-08-25 12:40:00,81.4,72.3,30.15,ESE,112,4.0,4.0,74,0.00,,---,0.00,VWS V14.01,2013-08-25 17:40:00,
2013-08-25 12:45:00,81.8,72.7,30.15,ENE,68,1.1,2.0,74,0.00,,---,0.00,VWS V14.01,2013-08-25 17:45:00,
2013-08-25 12:50:00,81.8,72.7,30.15,ENE,68,0.9,1.3,74,0.00,,---,0.00,VWS V14.01,2013-08-25 17:50:00,
2013-08-25 12:55:00,82.3,73.2,30.18,ENE,68,0.0,1.3,74,0.00,,---,0.00,VWS V14.01,2013-08-25 17:55:00,
2013-08-25 13:00:00,82.3,72.4,30.18,ENE,68,0.0,2.9,72,0.00,,---,0.00,VWS V14.01,2013-08-25 18:00:00,
2013-08-25 13:05:00,82.7,73.6,30.18,WSW,248,3.6,3.6,74,0.00,,---,0.00,VWS V14.01,2013-08-25 18:05:00,
2013-08-25 13:10:00,83.2,73.3,30.15,NNE,22,2.0,2.2,72,0.00,,---,0.00,VWS V14.01,2013-08-25 18:10:00,
2013-08-25 13:15:00,82.5,72.2,30.15,ENE,68,2.2,2.2,71,0.00,,---,0.00,VWS V14.01,2013-08-25 18:15:00,
2013-08-25 13:20:00,82.1,71.8,30.15,ENE,68,0.0,0.0,71,0.00,,---,0.00,VWS V14.01,2013-08-25 18:20:00,
2013-08-25 13:25:00,82.5,72.6,30.15,WNW,292,1.3,2.5,72,0.00,,---,0.00,VWS V14.01,2013-08-25 18:25:00,
2013-08-25 13:30:00,83.0,72.7,30.15,SSE,158,1.6,2.5,71,0.00,,---,0.00,VWS V14.01,2013-08-25 18:30:00,
2013-08-25 13:35:00,83.4,73.0,30.15,NE,45,1.1,2.7,71,0.00,,---,0.00,VWS V14.01,2013-08-25 18:35:00,
2013-08-25 13:40:00,83.6,72.8,30.15,East,90,0.0,0.0,70,0.00,,---,0.00,VWS V14.01,2013-08-25 18:40:00,
2013-08-25 13:45:00,84.3,73.5,30.15,South,180,1.6,3.1,70,0.00,,---,0.00,VWS V14.01,2013-08-25 18:45:00,
2013-08-25 13:50:00,84.5,71.9,30.15,ENE,68,1.3,1.3,66,0.00,,---,0.00,VWS V14.01,2013-08-25 18:50:00,
2013-08-25 13:55:00,84.5,71.9,30.15,SSW,202,1.6,1.6,66,0.00,,---,0.00,VWS V14.01,2013-08-25 18:55:00,
2013-08-25 14:00:00,85.0,72.8,30.15,ENE,68,0.0,0.9,67,0.00,,---,0.00,VWS V14.01,2013-08-25 19:00:00,
2013-08-25 14:05:00,85.2,73.0,30.15,SW,225,1.3,1.3,67,0.00,,---,0.00,VWS V14.01,2013-08-25 19:05:00,
2013-08-25 14:10:00,85.7,73.1,30.15,SSE,158,1.6,2.0,66,0.00,,---,0.00,VWS V14.01,2013-08-25 19:10:00,
2013-08-25 14:15:00,85.7,73.1,30.15,East,90,0.0,0.0,66,0.00,,---,0.00,VWS V14.01,2013-08-25 19:15:00,
2013-08-25 14:20:00,85.2,72.1,30.15,ENE,68,0.0,0.0,65,0.00,,---,0.00,VWS V14.01,2013-08-25 19:20:00,
2013-08-25 14:25:00,85.6,72.9,30.15,ESE,112,1.3,2.5,66,0.00,,---,0.00,VWS V14.01,2013-08-25 19:25:00,
2013-08-25 14:30:00,84.8,72.2,30.15,ESE,112,2.0,2.9,66,0.00,,---,0.00,VWS V14.01,2013-08-25 19:30:00,
2013-08-25 14:35:00,83.6,71.0,30.15,SSE,158,2.0,2.0,66,0.00,,---,0.00,VWS V14.01,2013-08-25 19:35:00,
2013-08-25 14:40:00,82.9,70.8,30.15,ENE,68,0.0,0.0,67,0.00,,---,0.00,VWS V14.01,2013-08-25 19:40:00,
2013-08-25 14:45:00,83.6,71.9,30.15,WNW,292,0.0,0.0,68,0.00,,---,0.00,VWS V14.01,2013-08-25 19:45:00,
2013-08-25 14:50:00,84.3,72.6,30.15,SW,225,1.1,1.1,68,0.00,,---,0.00,VWS V14.01,2013-08-25 19:50:00,
2013-08-25 14:55:00,84.7,72.1,30.12,WSW,248,2.0,2.0,66,0.00,,---,0.00,VWS V14.01,2013-08-25 19:55:00,
2013-08-25 15:00:00,85.2,72.6,30.12,SSW,202,3.8,3.8,66,0.00,,---,0.00,VWS V14.01,2013-08-25 20:00:00,
2013-08-25 15:05:00,85.7,73.1,30.12,SSW,202,0.0,1.3,66,0.00,,---,0.00,VWS V14.01,2013-08-25 20:05:00,
2013-08-25 15:10:00,86.1,73.4,30.12,SSE,158,1.6,2.0,66,0.00,,---,0.00,VWS V14.01,2013-08-25 20:10:00,
2013-08-25 15:15:00,85.4,71.8,30.12,ENE,68,0.0,0.0,64,0.00,,---,0.00,VWS V14.01,2013-08-25 20:15:00,
2013-08-25 15:20:00,84.8,71.8,30.12,ESE,112,0.0,0.0,65,0.00,,---,0.00,VWS V14.01,2013-08-25 20:20:00,
2013-08-25 15:25:00,84.8,72.2,30.12,SSE,158,0.0,0.0,66,0.00,,---,0.00,VWS V14.01,2013-08-25 20:25:00,
2013-08-25 15:30:00,84.7,72.1,30.12,ESE,112,0.0,1.3,66,0.00,,---,0.00,VWS V14.01,2013-08-25 20:30:00,
2013-08-25 15:35:00,84.5,71.9,30.12,NNE,22,0.0,0.0,66,0.00,,---,0.00,VWS V14.01,2013-08-25 20:35:00,
2013-08-25 15:40:00,84.8,72.2,30.12,WSW,248,1.1,1.1,66,0.00,,---,0.00,VWS V14.01,2013-08-25 20:40:00,
2013-08-25 15:45:00,85.4,72.3,30.12,SSW,202,0.9,0.9,65,0.00,,---,0.00,VWS V14.01,2013-08-25 20:45:00,
2013-08-25 15:50:00,85.4,71.8,30.12,North,0,0.9,1.1,64,0.00,,---,0.00,VWS V14.01,2013-08-25 20:50:00,
2013-08-25 15:55:00,85.6,72.0,30.12,NE,45,2.0,2.0,64,0.00,,---,0.00,VWS V14.01,2013-08-25 20:55:00,
2013-08-25 16:00:00,85.6,72.0,30.12,NNW,338,0.0,0.0,64,0.00,,---,0.00,VWS V14.01,2013-08-25 21:00:00,
2013-08-25 16:05:00,85.6,72.0,30.12,SE,135,2.0,3.1,64,0.00,,---,0.00,VWS V14.01,2013-08-25 21:05:00,
2013-08-25 16:10:00,85.4,71.8,30.12,SSE,158,0.0,0.0,64,0.00,,---,0.00,VWS V14.01,2013-08-25 21:10:00,
2013-08-25 16:15:00,85.2,71.2,30.12,SSW,202,0.0,0.0,63,0.00,,---,0.00,VWS V14.01,2013-08-25 21:15:00,
2013-08-25 16:20:00,85.2,71.7,30.12,ENE,68,0.0,0.0,64,0.00,,---,0.00,VWS V14.01,2013-08-25 21:20:00,
2013-08-25 16:25:00,85.2,71.7,30.12,NE,45,2.0,2.0,64,0.00,,---,0.00,VWS V14.01,2013-08-25 21:25:00,
2013-08-25 16:30:00,85.4,71.8,30.12,ESE,112,2.0,2.0,64,0.00,,---,0.00,VWS V14.01,2013-08-25 21:30:00,
2013-08-25 16:35:00,85.6,72.0,30.12,NNE,22,2.0,2.0,64,0.00,,---,0.00,VWS V14.01,2013-08-25 21:35:00,
2013-08-25 16:40:00,85.6,72.5,30.12,NE,45,0.0,0.0,65,0.00,,---,0.00,VWS V14.01,2013-08-25 21:40:00,
2013-08-25 16:45:00,85.6,72.0,30.12,ENE,68,2.9,2.9,64,0.00,,---,0.00,VWS V14.01,2013-08-25 21:45:00,
2013-08-25 16:50:00,85.6,72.0,30.12,WSW,248,0.0,0.0,64,0.00,,---,0.00,VWS V14.01,2013-08-25 21:50:00,
2013-08-25 16:55:00,85.6,71.5,30.12,SSW,202,1.1,1.3,63,0.00,,---,0.00,VWS V14.01,2013-08-25 21:55:00,
2013-08-25 17:00:00,85.4,71.8,30.12,NE,45,0.0,0.0,64,0.00,,---,0.00,VWS V14.01,2013-08-25 22:00:00,
2013-08-25 17:05:00,85.2,71.2,30.12,NW,315,0.0,0.0,63,0.00,,---,0.00,VWS V14.01,2013-08-25 22:05:00,
2013-08-25 17:10:00,85.0,71.5,30.09,NE,45,0.9,1.6,64,0.00,,---,0.00,VWS V14.01,2013-08-25 22:10:00,
2013-08-25 17:15:00,85.0,71.9,30.09,ENE,68,0.9,1.3,65,0.00,,---,0.00,VWS V14.01,2013-08-25 22:15:00,
2013-08-25 17:20:00,84.7,70.7,30.09,ENE,68,0.0,0.0,63,0.00,,---,0.00,VWS V14.01,2013-08-25 22:20:00,
2013-08-25 17:25:00,84.5,71.4,30.09,SW,225,0.0,0.0,65,0.00,,---,0.00,VWS V14.01,2013-08-25 22:25:00,
2013-08-25 17:30:00,84.3,70.8,30.09,ENE,68,0.0,0.0,64,0.00,,---,0.00,VWS V14.01,2013-08-25 22:30:00,
2013-08-25 17:35:00,84.1,71.1,30.09,NE,45,0.0,0.0,65,0.00,,---,0.00,VWS V14.01,2013-08-25 22:35:00,
2013-08-25 17:40:00,83.9,71.4,30.09,SSW,202,0.0,0.0,66,0.00,,---,0.00,VWS V14.01,2013-08-25 22:40:00,
2013-08-25 17:45:00,83.6,71.0,30.09,SE,135,0.0,0.0,66,0.00,,---,0.00,VWS V14.01,2013-08-25 22:45:00,
2013-08-25 17:50:00,83.4,70.9,30.09,SE,135,0.0,0.0,66,0.00,,---,0.00,VWS V14.01,2013-08-25 22:50:00,
2013-08-25 17:55:00,83.2,70.7,30.09,SE,135,0.0,0.0,66,0.00,,---,0.00,VWS V14.01,2013-08-25 22:55:00,
2013-08-25 18:00:00,83.0,71.0,30.09,SE,135,0.0,0.0,67,0.00,,---,0.00,VWS V14.01,2013-08-25 23:00:00,
2013-08-25 18:05:00,82.9,71.7,30.09,ENE,68,0.0,0.0,69,0.00,,---,0.00,VWS V14.01,2013-08-25 23:05:00,
2013-08-25 18:10:00,82.5,71.3,30.09,ESE,112,0.0,0.0,69,0.00,,---,0.00,VWS V14.01,2013-08-25 23:10:00,
2013-08-25 18:15:00,82.3,71.6,30.09,SE,135,0.0,0.0,70,0.00,,---,0.00,VWS V14.01,2013-08-25 23:15:00,
2013-08-25 18:20:00,82.1,71.4,30.09,SE,135,0.0,0.0,70,0.00,,---,0.00,VWS V14.01,2013-08-25 23:20:00,
2013-08-25 18:25:00,81.8,71.5,30.09,SE,135,0.0,0.0,71,0.00,,---,0.00,VWS V14.01,2013-08-25 23:25:00,
2013-08-25 18:30:00,81.6,71.3,30.09,SE,135,0.0,0.0,71,0.00,,---,0.00,VWS V14.01,2013-08-25 23:30:00,
2013-08-25 18:35:00,81.4,71.5,30.09,SE,135,0.0,0.0,72,0.00,,---,0.00,VWS V14.01,2013-08-25 23:35:00,
2013-08-25 18:40:00,81.2,71.8,30.09,SE,135,0.0,0.0,73,0.00,,---,0.00,VWS V14.01,2013-08-25 23:40:00,
2013-08-25 18:45:00,81.1,72.0,30.09,SE,135,0.0,0.0,74,0.00,,---,0.00,VWS V14.01,2013-08-25 23:45:00,
2013-08-25 18:50:00,80.9,71.8,30.09,SE,135,0.0,0.0,74,0.00,,---,0.00,VWS V14.01,2013-08-25 23:50:00,
2013-08-25 18:55:00,80.7,72.0,30.12,SE,135,0.0,0.0,75,0.00,,---,0.00,VWS V14.01,2013-08-25 23:55:00,
2013-08-25 19:00:00,80.3,71.7,30.12,SE,135,0.0,0.0,75,0.00,,---,0.00,VWS V14.01,2013-08-26 00:00:00,
2013-08-25 19:05:00,80.2,71.5,30.12,SE,135,0.0,0.0,75,0.00,,---,0.00,VWS V14.01,2013-08-26 00:05:00,
2013-08-25 19:10:00,80.0,71.7,30.12,SE,135,0.0,0.0,76,0.00,,---,0.00,VWS V14.01,2013-08-26 00:10:00,
2013-08-25 19:15:00,79.6,71.4,30.12,SE,135,0.0,0.0,76,0.00,,---,0.00,VWS V14.01,2013-08-26 00:15:00,
2013-08-25 19:20:00,79.4,71.6,30.12,SE,135,0.0,0.0,77,0.00,,---,0.00,VWS V14.01,2013-08-26 00:20:00,
2013-08-25 19:25:00,79.1,71.6,30.12,SE,135,0.0,0.0,78,0.00,,---,0.00,VWS V14.01,2013-08-26 00:25:00,
2013-08-25 19:30:00,78.9,71.5,30.12,SE,135,0.0,0.0,78,0.00,,---,0.00,VWS V14.01,2013-08-26 00:30:00,
2013-08-25 19:35:00,78.5,71.1,30.12,SE,135,0.0,0.0,78,0.00,,---,0.00,VWS V14.01,2013-08-26 00:35:00,
2013-08-25 19:40:00,78.4,71.3,30.12,ESE,112,0.0,0.0,79,0.00,,---,0.00,VWS V14.01,2013-08-26 00:40:00,
2013-08-25 19:45:00,78.2,71.5,30.12,ESE,112,0.0,0.0,80,0.00,,---,0.00,VWS V14.01,2013-08-26 00:45:00,
2013-08-25 19:50:00,78.0,71.7,30.12,ESE,112,0.0,0.0,81,0.00,,---,0.00,VWS V14.01,2013-08-26 00:50:00,
2013-08-25 19:55:00,77.6,71.7,30.12,ESE,112,0.0,0.0,82,0.00,,---,0.00,VWS V14.01,2013-08-26 00:55:00,
2013-08-25 20:00:00,77.6,71.7,30.12,ESE,112,0.0,0.0,82,0.00,,---,0.00,VWS V14.01,2013-08-26 01:00:00,
2013-08-25 20:05:00,77.5,72.2,30.12,ESE,112,0.0,0.0,84,0.00,,---,0.00,VWS V14.01,2013-08-26 01:05:00,
2013-08-25 20:10:00,77.3,71.7,30.12,ESE,112,0.0,0.0,83,0.00,,---,0.00,VWS V14.01,2013-08-26 01:10:00,
2013-08-25 20:15:00,77.1,71.9,30.12,ESE,112,0.0,0.0,84,0.00,,---,0.00,VWS V14.01,2013-08-26 01:15:00,
2013-08-25 20:20:00,76.9,71.7,30.12,ESE,112,0.0,0.0,84,0.00,,---,0.00,VWS V14.01,2013-08-26 01:20:00,
2013-08-25 20:25:00,76.7,71.9,30.12,ESE,112,0.0,0.0,85,0.00,,---,0.00,VWS V14.01,2013-08-26 01:25:00,
2013-08-25 20:30:00,76.6,71.7,30.12,ESE,112,0.0,0.0,85,0.00,,---,0.00,VWS V14.01,2013-08-26 01:30:00,
2013-08-25 20:35:00,76.6,72.1,30.12,ESE,112,0.0,0.0,86,0.00,,---,0.00,VWS V14.01,2013-08-26 01:35:00,
2013-08-25 20:40:00,76.6,72.1,30.15,ESE,112,0.0,0.0,86,0.00,,---,0.00,VWS V14.01,2013-08-26 01:40:00,
2013-08-25 20:45:00,76.4,72.2,30.15,ESE,112,0.0,0.0,87,0.00,,---,0.00,VWS V14.01,2013-08-26 01:45:00,
2013-08-25 20:50:00,76.4,72.2,30.15,ESE,112,0.0,0.0,87,0.00,,---,0.00,VWS V14.01,2013-08-26 01:50:00,
2013-08-25 20:55:00,76.2,72.1,30.15,ESE,112,0.0,0.0,87,0.00,,---,0.00,VWS V14.01,2013-08-26 01:55:00,
2013-08-25 21:00:00,76.2,72.1,30.15,ESE,112,0.0,0.0,87,0.00,,---,0.00,VWS V14.01,2013-08-26 02:00:00,
2013-08-25 21:06:00,76.0,72.2,30.15,ESE,112,0.0,0.0,88,0.00,,---,0.00,VWS V14.01,2013-08-26 02:06:00,
2013-08-25 21:11:00,75.8,72.0,30.15,ESE,112,0.0,0.0,88,0.00,,---,0.00,VWS V14.01,2013-08-26 02:11:00,
2013-08-25 21:15:00,75.8,72.4,30.15,ESE,112,0.0,0.0,89,0.00,,---,0.00,VWS V14.01,2013-08-26 02:15:00,
2013-08-25 21:20:00,75.8,72.4,30.15,ESE,112,0.0,0.0,89,0.00,,---,0.00,VWS V14.01,2013-08-26 02:20:00,
2013-08-25 21:25:00,75.7,72.2,30.15,ESE,112,0.0,0.0,89,0.00,,---,0.00,VWS V14.01,2013-08-26 02:25:00,
2013-08-25 21:30:00,75.7,72.2,30.15,ESE,112,0.0,0.0,89,0.00,,---,0.00,VWS V14.01,2013-08-26 02:30:00,
2013-08-25 21:35:00,75.5,72.0,30.15,ESE,112,0.0,0.0,89,0.00,,---,0.00,VWS V14.01,2013-08-26 02:35:00,
2013-08-25 21:40:00,75.5,72.0,30.15,ESE,112,0.0,0.0,89,0.00,,---,0.00,VWS V14.01,2013-08-26 02:40:00,
2013-08-25 21:45:00,75.5,72.3,30.15,WSW,248,0.0,0.0,90,0.00,,---,0.00,VWS V14.01,2013-08-26 02:45:00,
2013-08-25 21:50:00,75.5,72.3,30.15,SSW,202,0.0,0.0,90,0.00,,---,0.00,VWS V14.01,2013-08-26 02:50:00,
2013-08-25 21:55:00,75.7,72.5,30.18,ESE,112,0.0,0.0,90,0.00,,---,0.00,VWS V14.01,2013-08-26 02:55:00,
2013-08-25 22:00:00,75.7,72.5,30.18,ENE,68,0.0,0.0,90,0.00,,---,0.00,VWS V14.01,2013-08-26 03:00:00,
2013-08-25 22:05:00,75.8,72.4,30.18,NE,45,0.0,0.0,89,0.00,,---,0.00,VWS V14.01,2013-08-26 03:05:00,
2013-08-25 22:10:00,75.8,72.4,30.15,NE,45,0.0,0.0,89,0.00,,---,0.00,VWS V14.01,2013-08-26 03:10:00,
2013-08-25 22:15:00,75.8,72.4,30.15,North,0,0.0,0.0,89,0.00,,---,0.00,VWS V14.01,2013-08-26 03:15:00,
2013-08-25 22:20:00,75.8,72.4,30.15,SSE,158,0.0,0.0,89,0.00,,---,0.00,VWS V14.01,2013-08-26 03:20:00,
2013-08-25 22:26:00,75.8,72.4,30.18,SSE,158,0.0,0.0,89,0.00,,---,0.00,VWS V14.01,2013-08-26 03:26:00,
2013-08-25 22:31:00,75.8,72.4,30.18,SSE,158,0.0,0.0,89,0.00,,---,0.00,VWS V14.01,2013-08-26 03:31:00,
2013-08-25 22:36:00,75.8,72.4,30.18,SSW,202,0.0,0.0,89,0.00,,---,0.00,VWS V14.01,2013-08-26 03:36:00,
2013-08-25 22:41:00,75.7,72.2,30.18,ESE,112,0.0,2.7,89,0.00,,---,0.00,VWS V14.01,2013-08-26 03:41:00,
2013-08-25 22:46:00,75.7,72.2,30.18,SE,135,0.0,2.5,89,0.00,,---,0.00,VWS V14.01,2013-08-26 03:46:00,
2013-08-25 22:51:00,75.7,72.2,30.18,SSE,158,0.0,1.1,89,0.00,,---,0.00,VWS V14.01,2013-08-26 03:51:00,
2013-08-25 22:56:00,75.5,71.7,30.15,ESE,112,0.0,0.0,88,0.00,,---,0.00,VWS V14.01,2013-08-26 03:56:00,
2013-08-25 23:01:00,75.5,71.7,30.15,ESE,112,0.0,0.0,88,0.00,,---,0.00,VWS V14.01,2013-08-26 04:01:00,
2013-08-25 23:06:00,75.3,71.2,30.15,ESE,112,0.0,0.0,87,0.00,,---,0.00,VWS V14.01,2013-08-26 04:06:00,
2013-08-25 23:11:00,75.3,71.2,30.18,ESE,112,0.0,0.0,87,0.00,,---,0.00,VWS V14.01,2013-08-26 04:11:00,
2013-08-25 23:16:00,75.3,71.2,30.18,ESE,112,0.0,0.0,87,0.00,,---,0.00,VWS V14.01,2013-08-26 04:16:00,
2013-08-25 23:21:00,75.1,71.0,30.18,SSE,158,0.0,0.0,87,0.00,,---,0.00,VWS V14.01,2013-08-26 04:21:00,
2013-08-25 23:26:00,75.1,71.0,30.18,ESE,112,0.0,0.0,87,0.00,,---,0.00,VWS V14.01,2013-08-26 04:26:00,
2013-08-25 23:31:00,75.1,71.0,30.18,East,90,0.0,0.0,87,0.00,,---,0.00,VWS V14.01,2013-08-26 04:31:00,
2013-08-25 23:36:00,75.1,70.7,30.18,SSE,158,0.0,3.1,86,0.00,,---,0.00,VWS V14.01,2013-08-26 04:36:00,
2013-08-25 23:41:00,75.1,70.3,30.18,SSE,158,0.0,0.0,85,0.00,,---,0.00,VWS V14.01,2013-08-26 04:41:00,
2013-08-25 23:46:00,75.1,70.3,30.18,ESE,112,0.0,0.0,85,0.00,,---,0.00,VWS V14.01,2013-08-26 04:46:00,
2013-08-25 23:51:00,74.8,69.6,30.18,NW,315,0.0,0.0,84,0.00,,---,0.00,VWS V14.01,2013-08-26 04:51:00,
2013-08-25 23:56:00,74.4,69.6,30.18,NW,315,0.0,0.0,85,0.00,,---,0.00,VWS V14.01,2013-08-26 04:56:00,